Location: Recife
(8.0585°S, 34.8848°W)
Time: 20:56:19
(UTC-03:00)

Explorer 11/Cluster Stage 4 - Pass Details

Date: 21 April 2026
Orbit: 463 x 1174 km, 28.8° (Epoch: 16 May)

Event Time Altitude Azimuth Distance (km) Brightness Sun altitude
Rises 15:21:39 0° 319° (NW) 4,033 11.1 26.2°
Reaches altitude 10° 15:24:52 10° 328° (NNW) 3,056 10.5 25.5°
Maximum altitude 15:31:36 33° 29° (NNE) 1,746 8.5 23.9°
Drops below altitude 10° 15:37:44 10° 91° (E) 2,777 8.9 22.4°
Sets 15:40:31 0° 101° (E) 3,623 9.4 21.8°
